When you browse on this site, cookies collect data to enhance your experience and personalize the content and advertising you see.
Visit our Privacy Policy to learn more. By continuing to use the site, you agree to this use of cookies and data.
  • In Lithuania
  • List of Countries
  • For 7 days
  • Water Temperature
  • Satellite Maps
  • Weather Map
  • Weather Widgets
  • user-avatar
    Login

    Hourly Weather Kulikovka

    Today, 26 March, Tuesday

    Time Temperature Precipitation Wind Pressure Humidity
    00:00 -4°C° 0 mm 3 mps 743 mmHg 87%
    01:00 -4°C° 0 mm 3 mps 743 mmHg 86%
    02:00 -4°C° 0 mm 3 mps 742 mmHg 86%
    03:00 -4°C° 0 mm 3 mps 742 mmHg 85%
    04:00 -4°C° 0.1 mm 3 mps 742 mmHg 87%
    05:00 -3°C° 0.1 mm 2 mps 741 mmHg 89%
    06:00 -3°C° 0.1 mm 2 mps 741 mmHg 91%
    07:00 -2°C° 0.3 mm 2 mps 741 mmHg 93%
    08:00 +1°C° 0.3 mm 1 mps 740 mmHg 95%
    09:00 +1°C° 0.3 mm 1 mps 740 mmHg 97%
    10:00 +1°C° 0 mm 1 mps 740 mmHg 98%
    11:00 +1°C° 0 mm 2 mps 740 mmHg 99%
    12:00 +1°C° 0 mm 2 mps 740 mmHg 99%
    13:00 +1°C° 0 mm 2 mps 740 mmHg 99%
    14:00 0°C° 0 mm 3 mps 740 mmHg 99%
    15:00 0°C° 0 mm 3 mps 740 mmHg 99%
    16:00 0°C° 0 mm 3 mps 741 mmHg 99%
    17:00 0°C° 0 mm 3 mps 741 mmHg 98%
    18:00 0°C° 0 mm 3 mps 741 mmHg 98%
    19:00 0°C° 0 mm 3 mps 741 mmHg 96%
    20:00 0°C° 0 mm 3 mps 742 mmHg 93%
    21:00 -1°C° 0 mm 4 mps 742 mmHg 91%
    22:00 -1°C° 0 mm 3 mps 742 mmHg 91%
    23:00 -2°C° 0 mm 3 mps 742 mmHg 91%

    Tomorrow, 27 March, Wednesday

    Time Temperature Precipitation Wind Pressure Humidity
    00:00 -4°C° 0 mm 3 mps 743 mmHg 91%
    01:00 -5°C° 0 mm 3 mps 743 mmHg 91%
    02:00 -5°C° 0 mm 3 mps 743 mmHg 90%
    03:00 -6°C° 0 mm 3 mps 744 mmHg 89%
    04:00 -6°C° 0 mm 3 mps 744 mmHg 89%
    05:00 -6°C° 0 mm 2 mps 744 mmHg 88%
    06:00 -6°C° 0 mm 2 mps 745 mmHg 88%
    07:00 -5°C° 0 mm 2 mps 745 mmHg 88%
    08:00 -4°C° 0 mm 2 mps 745 mmHg 88%
    09:00 -3°C° 0 mm 2 mps 746 mmHg 89%
    10:00 -3°C° 0 mm 2 mps 746 mmHg 90%
    11:00 -2°C° 0 mm 2 mps 747 mmHg 92%
    12:00 -1°C° 0 mm 2 mps 747 mmHg 94%
    13:00 -1°C° 0 mm 2 mps 747 mmHg 95%
    14:00 +1°C° 0 mm 2 mps 747 mmHg 96%
    15:00 +1°C° 0 mm 2 mps 747 mmHg 98%
    16:00 -1°C° 0 mm 2 mps 747 mmHg 92%
    17:00 -1°C° 0 mm 2 mps 747 mmHg 86%
    18:00 -2°C° 0 mm 2 mps 748 mmHg 81%
    19:00 -3°C° 0 mm 2 mps 748 mmHg 81%
    20:00 -4°C° 0 mm 2 mps 748 mmHg 81%
    21:00 -5°C° 0 mm 3 mps 749 mmHg 81%
    22:00 -6°C° 0 mm 3 mps 749 mmHg 82%
    23:00 -6°C° 0 mm 3 mps 749 mmHg 84%

    Day after tomorrow, 28 March, Thursday

    Time Temperature Precipitation Wind Pressure Humidity
    00:00 -6°C° 0 mm 3 mps 749 mmHg 85%
    01:00 -7°C° 0 mm 3 mps 749 mmHg 86%
    02:00 -7°C° 0 mm 3 mps 750 mmHg 88%
    03:00 -7°C° 0 mm 3 mps 750 mmHg 89%
    04:00 -7°C° 0 mm 3 mps 750 mmHg 89%
    05:00 -8°C° 0 mm 3 mps 750 mmHg 89%
    06:00 -8°C° 0 mm 3 mps 750 mmHg 90%
    07:00 -8°C° 0 mm 4 mps 751 mmHg 89%
    08:00 -7°C° 0 mm 4 mps 751 mmHg 89%
    09:00 -6°C° 0 mm 5 mps 751 mmHg 89%
    10:00 -5°C° 0 mm 5 mps 752 mmHg 88%
    11:00 -4°C° 0 mm 5 mps 752 mmHg 86%
    12:00 -4°C° 0 mm 5 mps 752 mmHg 85%
    13:00 -2°C° 0 mm 5 mps 752 mmHg 84%
    14:00 -2°C° 0 mm 5 mps 752 mmHg 83%
    15:00 -2°C° 0 mm 5 mps 752 mmHg 82%
    16:00 -2°C° 0 mm 4 mps 752 mmHg 82%
    17:00 -2°C° 0 mm 3 mps 752 mmHg 81%
    18:00 -2°C° 0 mm 2 mps 752 mmHg 81%
    19:00 -4°C° 0 mm 3 mps 752 mmHg 80%
    20:00 -5°C° 0 mm 3 mps 752 mmHg 79%
    21:00 -6°C° 0 mm 3 mps 753 mmHg 78%
    22:00 -6°C° 0 mm 3 mps 752 mmHg 79%
    23:00 -6°C° 0 mm 3 mps 752 mmHg 79%

    29 March, Friday

    Time Temperature Precipitation Wind Pressure Humidity
    00:00 -6°C° 0 mm 3 mps 751 mmHg 80%
    01:00 -6°C° 0 mm 3 mps 751 mmHg 80%
    02:00 -5°C° 0 mm 4 mps 751 mmHg 81%
    03:00 -5°C° 0 mm 4 mps 750 mmHg 81%
    04:00 -4°C° 0 mm 4 mps 750 mmHg 84%
    05:00 -4°C° 0 mm 4 mps 749 mmHg 86%
    06:00 -5°C° 0 mm 5 mps 749 mmHg 89%
    07:00 -4°C° 0.1 mm 5 mps 748 mmHg 90%
    08:00 -2°C° 0.1 mm 5 mps 748 mmHg 92%
    09:00 -1°C° 0.1 mm 5 mps 748 mmHg 94%
    10:00 -1°C° 0.2 mm 5 mps 747 mmHg 96%
    11:00 -1°C° 0.2 mm 5 mps 747 mmHg 98%
    12:00 -1°C° 0.2 mm 5 mps 746 mmHg 99%
    13:00 0°C° 0 mm 5 mps 746 mmHg 99%
    14:00 0°C° 0 mm 5 mps 746 mmHg 99%
    15:00 0°C° 0 mm 4 mps 746 mmHg 99%
    16:00 0°C° 0 mm 4 mps 746 mmHg 98%
    17:00 0°C° 0 mm 5 mps 746 mmHg 97%
    18:00 0°C° 0 mm 5 mps 746 mmHg 96%
    19:00 -1°C° 0 mm 4 mps 747 mmHg 93%
    20:00 -1°C° 0 mm 4 mps 747 mmHg 90%
    21:00 -1°C° 0 mm 3 mps 747 mmHg 88%
    22:00 -1°C° 0 mm 3 mps 747 mmHg 89%
    23:00 -1°C° 0 mm 3 mps 747 mmHg 90%

    30 March, Saturday

    Time Temperature Precipitation Wind Pressure Humidity
    00:00 -1°C° 0 mm 3 mps 747 mmHg 91%
    01:00 -1°C° 0 mm 3 mps 747 mmHg 93%
    02:00 0°C° 0 mm 3 mps 747 mmHg 94%
    03:00 0°C° 0 mm 3 mps 746 mmHg 96%
    04:00 0°C° 0 mm 3 mps 746 mmHg 95%
    05:00 0°C° 0 mm 3 mps 746 mmHg 94%
    06:00 0°C° 0 mm 3 mps 746 mmHg 93%
    07:00 -1°C° 0 mm 4 mps 745 mmHg 95%
    08:00 0°C° 0 mm 5 mps 745 mmHg 97%
    09:00 0°C° 0 mm 5 mps 745 mmHg 99%
    10:00 0°C° 0 mm 5 mps 744 mmHg 99%
    11:00 +1°C° 0 mm 6 mps 744 mmHg 99%
    12:00 +1°C° 0 mm 6 mps 744 mmHg 99%
    13:00 +1°C° 0 mm 6 mps 743 mmHg 99%
    14:00 +2°C° 0 mm 6 mps 743 mmHg 99%
    15:00 +2°C° 0 mm 6 mps 743 mmHg 99%
    16:00 +2°C° 0 mm 5 mps 743 mmHg 98%
    17:00 +2°C° 0 mm 5 mps 743 mmHg 96%
    18:00 +3°C° 0 mm 4 mps 743 mmHg 95%
    19:00 +3°C° 0 mm 4 mps 744 mmHg 93%
    20:00 +1°C° 0 mm 4 mps 744 mmHg 91%
    21:00 +2°C° 0 mm 3 mps 744 mmHg 89%
    22:00 +2°C° 0 mm 3 mps 745 mmHg 89%
    23:00 +1°C° 0 mm 3 mps 745 mmHg 89%

    31 March, Sunday

    Time Temperature Precipitation Wind Pressure Humidity
    00:00 +1°C° 0 mm 3 mps 745 mmHg 89%
    01:00 +1°C° 0 mm 3 mps 745 mmHg 90%
    02:00 +1°C° 0 mm 3 mps 745 mmHg 91%
    03:00 +1°C° 0 mm 3 mps 744 mmHg 92%
    04:00 +1°C° 0 mm 3 mps 744 mmHg 92%
    05:00 +1°C° 0 mm 4 mps 744 mmHg 93%
    06:00 +1°C° 0 mm 4 mps 744 mmHg 93%
    07:00 +1°C° 0 mm 4 mps 743 mmHg 94%
    08:00 +1°C° 0 mm 4 mps 743 mmHg 95%
    09:00 +2°C° 0 mm 5 mps 743 mmHg 96%
    10:00 +3°C° 0 mm 5 mps 743 mmHg 94%
    11:00 +5°C° 0 mm 5 mps 742 mmHg 91%
    12:00 +6°C° 0 mm 5 mps 742 mmHg 88%
    13:00 +7°C° 0 mm 5 mps 742 mmHg 84%
    14:00 +7°C° 0 mm 5 mps 742 mmHg 80%
    15:00 +8°C° 0 mm 5 mps 742 mmHg 76%
    16:00 +7°C° 0 mm 4 mps 742 mmHg 78%
    17:00 +6°C° 0 mm 4 mps 742 mmHg 80%
    18:00 +5°C° 0 mm 3 mps 742 mmHg 82%
    19:00 +4°C° 0 mm 3 mps 742 mmHg 82%
    20:00 +4°C° 0 mm 3 mps 743 mmHg 82%
    21:00 +3°C° 0 mm 3 mps 743 mmHg 82%
    22:00 +2°C° 0 mm 3 mps 744 mmHg 83%
    23:00 +2°C° 0 mm 3 mps 744 mmHg 83%
    Show more